Date,TemperatureHighF,TemperatureAvgF,TemperatureLowF,DewpointHighF,DewpointAvgF,DewpointLowF,HumidityHigh,HumidityAvg,HumidityLow,PressureMaxIn,PressureMinIn,WindSpeedMaxMPH,WindSpeedAvgMPH,GustSpeedMaxMPH,PrecipitationSumIn
2013-2-1,33.1,26.5,20.5,16.3,12.2,7.5,67,55,37,30.09,29.62,19,6,0,0.00
2013-2-2,29.1,21.9,17.2,20.9,13.2,8.5,98,71,43,30.17,29.95,11,5,0,0.00
2013-2-3,32.0,23.1,14.2,24.5,18.8,13.7,98,85,58,29.95,29.66,8,1,0,0.02
2013-2-4,31.1,24.9,20.8,23.6,13.3,8.5,98,63,40,29.85,29.67,11,4,0,0.00
2013-2-5,32.2,25.2,19.8,27.0,22.4,15.0,98,89,70,29.91,29.79,6,1,0,0.00
2013-2-6,39.4,30.0,23.0,30.1,21.1,2.5,98,73,38,30.25,29.81,11,3,0,0.04
2013-2-7,34.3,24.0,14.5,18.3,12.2,3.3,90,62,40,30.43,30.24,5,1,0,0.00
2013-2-8,31.8,28.7,25.0,31.3,26.5,18.0,98,92,68,30.25,29.60,16,5,0,0.00
2013-2-9,32.5,25.0,11.3,29.7,19.0,6.4,98,80,51,30.24,29.68,16,5,0,0.00
2013-2-10,36.3,17.8,2.1,17.1,9.0,-1.1,98,71,35,30.39,30.21,4,1,0,0.01
2013-2-11,40.1,32.2,20.3,39.6,31.5,17.1,98,97,87,30.20,29.55,3,0,0,0.21
2013-2-12,43.3,38.4,31.3,38.0,31.1,26.8,98,75,63,29.84,29.58,8,3,0,0.01
2013-2-13,45.7,36.0,27.0,34.6,28.0,24.0,98,74,50,29.82,29.58,8,1,0,0.00
2013-2-14,45.3,33.9,21.2,36.2,29.3,20.7,98,85,57,29.86,29.60,6,1,0,0.02
2013-2-15,53.4,40.1,27.5,37.8,32.5,27.0,98,77,51,29.88,29.77,9,2,0,0.00
2013-2-16,36.7,32.0,27.3,34.7,26.3,16.0,98,80,59,29.88,29.65,10,4,0,0.03
2013-2-17,31.6,23.8,15.3,16.8,7.3,1.1,64,50,32,29.84,29.54,14,7,0,0.00
2013-2-18,36.1,24.4,14.5,15.0,8.2,2.5,61,50,37,30.10,29.85,11,4,0,0.00
2013-2-19,41.9,33.5,21.0,38.9,28.3,14.1,98,82,53,30.07,29.53,15,3,0,0.22
2013-2-20,36.5,29.2,23.7,30.8,17.7,12.3,83,62,50,29.84,29.55,16,6,0,0.00
2013-2-21,35.2,26.2,19.8,19.3,15.6,13.4,98,64,50,30.23,29.83,14,5,0,0.00
2013-2-22,40.8,30.1,18.5,33.1,24.6,18.0,98,81,57,30.32,30.16,6,2,0,0.00
2013-2-23,40.1,35.6,32.4,39.6,35.1,31.9,98,98,98,30.16,29.73,6,1,0,0.10
2013-2-24,44.8,36.2,29.1,43.7,34.7,27.7,98,94,72,29.85,29.62,10,2,0,0.04
2013-2-25,46.6,34.7,22.1,37.4,30.1,21.6,98,85,58,30.12,29.85,4,1,0,0.01
2013-2-26,46.0,37.6,26.1,36.0,31.8,25.6,98,81,62,30.21,29.86,8,2,0,0.08
2013-2-27,45.0,39.0,32.7,44.5,38.5,32.2,98,98,98,29.87,29.40,9,3,0,1.06
2013-2-28,49.6,40.3,34.5,44.2,38.6,34.0,98,94,69,29.49,29.42,7,2,0,0.06